| time (UTC) | temp F | wind direction | speed knots | gust knots | rain 1hr in | rain 24hr in | rain mn in | humidity % | barometer mb |
| 20260510163031 | 56 | 61 | 1.7 | 7.0 | 0.00 | 0.00 | 0.00 | 58 | 1015.9 |
| 20260510161527 | 58 | 19 | 1.7 | 9.6 | 0.00 | 0.00 | 0.00 | 55 | 1016.1 |
| 20260510160026 | 56 | 61 | 1.7 | 5.2 | 0.00 | 0.00 | 0.00 | 58 | 1016.2 |
| 20260510154529 | 60 | 5 | 1.7 | 5.2 | 0.00 | 0.00 | 0.00 | 54 | 1016.3 |
| 20260510153024 | 59 | 30 | 1.7 | 8.7 | 0.00 | 0.00 | 0.00 | 56 | 1016.4 |
| 20260510151524 | 58 | 352 | 2.6 | 8.7 | 0.00 | 0.00 | 0.00 | 57 | 1016.5 |
| 20260510150035 | 57 | 17 | 1.7 | 6.1 | 0.00 | 0.00 | 0.00 | 61 | 1016.7 |
| 20260510144530 | 55 | 352 | 1.7 | 7.8 | 0.00 | 0.00 | 0.00 | 61 | 1016.9 |
| 20260510143034 | 56 | 5 | 1.7 | 6.1 | 0.00 | 0.00 | 0.00 | 61 | 1017.2 |
| 20260510141523 | 56 | 9 | 2.6 | 7.0 | 0.00 | 0.00 | 0.00 | 62 | 1017.4 |
| 20260510140026 | 54 | 52 | 2.6 | 6.1 | 0.00 | 0.00 | 0.00 | 64 | 1017.4 |
| 20260510134528 | 54 | 182 | 2.6 | 7.8 | 0.00 | 0.00 | 0.00 | 65 | 1017.5 |
| 20260510133026 | 55 | 313 | 2.6 | 7.8 | 0.00 | 0.00 | 0.00 | 64 | 1017.6 |
| 20260510131529 | 55 | 347 | 2.6 | 7.0 | 0.00 | 0.00 | 0.00 | 64 | 1017.6 |
| 20260510130004 | 55 | 46 | 2.6 | 8.7 | 0.00 | 0.00 | 0.00 | 65 | 1017.7 |
| 20260510124506 | 55 | 49 | 2.6 | 8.7 | 0.00 | 0.00 | 0.00 | 65 | 1017.9 |
| 20260510123010 | 56 | 10 | 2.6 | 5.2 | 0.00 | 0.00 | 0.00 | 64 | 1017.8 |
| 20260510121519 | 56 | 341 | 2.6 | 8.7 | 0.00 | 0.00 | 0.00 | 65 | 1018.0 |
| 20260510120008 | 56 | 5 | 2.6 | 7.0 | 0.00 | 0.00 | 0.00 | 65 | 1018.0 |
| 20260510114508 | 56 | 19 | 2.6 | 7.8 | 0.00 | 0.00 | 0.00 | 65 | 1018.1 |
| 20260510113011 | 56 | 332 | 2.6 | 12.2 | 0.00 | 0.00 | 0.00 | 62 | 1018.2 |
| 20260510111516 | 58 | 360 | 3.5 | 10.4 | 0.00 | 0.00 | 0.00 | 61 | 1018.3 |
| 20260510110026 | 57 | 76 | 3.5 | 11.3 | 0.00 | 0.00 | 0.00 | 61 | 1018.4 |
| 20260510104504 | 58 | 352 | 1.7 | 12.2 | 0.00 | 0.00 | 0.00 | 60 | 1018.4 |
| 20260510103007 | 58 | 40 | 4.3 | 9.6 | 0.00 | 0.00 | 0.00 | 62 | 1018.4 |
| 20260510101510 | 57 | 37 | 3.5 | 10.4 | 0.00 | 0.00 | 0.00 | 60 | 1018.5 |
| 20260510100030 | 57 | 28 | 2.6 | 10.4 | 0.00 | 0.00 | 0.00 | 64 | 1018.5 |
| 20260510094531 | 57 | 22 | 2.6 | 8.7 | 0.00 | 0.00 | 0.00 | 62 | 1018.7 |
| 20260510093004 | 56 | 23 | 2.6 | 10.4 | 0.00 | 0.00 | 0.00 | 64 | 1018.7 |
| 20260510091510 | 55 | 44 | 2.6 | 10.4 | 0.00 | 0.00 | 0.00 | 66 | 1018.8 |
| 20260510090015 | 55 | 92 | 1.7 | 11.3 | 0.00 | 0.00 | 0.00 | 67 | 1018.8 |
| 20260510084523 | 53 | 15 | 2.6 | 10.4 | 0.00 | 0.00 | 0.00 | 68 | 1019.0 |
| 20260510083029 | 54 | 193 | 2.6 | 7.0 | 0.00 | 0.00 | 0.00 | 68 | 1019.1 |
| 20260510081508 | 53 | 5 | 3.5 | 11.3 | 0.00 | 0.00 | 0.00 | 69 | 1018.9 |
| 20260510080023 | 53 | 158 | 2.6 | 8.7 | 0.00 | 0.00 | 0.00 | 70 | 1019.1 |
| 20260510074519 | 52 | 5 | 1.7 | 9.6 | 0.00 | 0.00 | 0.00 | 71 | 1018.9 |
| 20260510073022 | 51 | 20 | 2.6 | 8.7 | 0.00 | 0.00 | 0.00 | 72 | 1018.8 |
| 20260510071524 | 51 | 360 | 2.6 | 10.4 | 0.00 | 0.00 | 0.00 | 73 | 1018.8 |
| 20260510070012 | 50 | 39 | 2.6 | 9.6 | 0.00 | 0.00 | 0.00 | 74 | 1018.7 |
| 20260510064518 | 51 | 36 | 2.6 | 10.4 | 0.00 | 0.00 | 0.00 | 74 | 1018.6 |
| 20260510063020 | 51 | 22 | 2.6 | 8.7 | 0.00 | 0.00 | 0.00 | 74 | 1018.5 |
| 20260510061522 | 49 | 34 | 2.6 | 8.7 | 0.00 | 0.00 | 0.00 | 77 | 1018.6 |
| 20260510060024 | 48 | 61 | 2.6 | 13.0 | 0.00 | 0.00 | 0.00 | 79 | 1018.7 |
| 20260510054516 | 47 | 309 | 2.6 | 7.8 | 0.00 | 0.00 | 0.00 | 80 | 1018.7 |
| 20260510053019 | 47 | 56 | 0.9 | 8.7 | 0.00 | 0.00 | 0.00 | 80 | 1018.7 |
| 20260510051522 | 46 | 19 | 0.9 | 5.2 | 0.00 | 0.00 | 0.00 | 81 | 1018.6 |
| 20260510050026 | 46 | 22 | 2.6 | 7.8 | 0.00 | 0.00 | 0.00 | 80 | 1018.5 |
| 20260510044532 | 46 | 320 | 0.9 | 7.8 | 0.00 | 0.00 | 0.00 | 81 | 1018.5 |
| 20260510043028 | 46 | 352 | 1.7 | 6.1 | 0.00 | 0.00 | 0.00 | 81 | 1018.5 |
| 20260510041520 | 46 | 23 | 1.7 | 7.8 | 0.00 | 0.00 | 0.00 | 80 | 1018.5 |
| 20260510040010 | 47 | 360 | 1.7 | 8.7 | 0.00 | 0.00 | 0.00 | 80 | 1018.6 |
| 20260510034508 | 47 | 9 | 1.7 | 7.0 | 0.00 | 0.00 | 0.00 | 80 | 1018.8 |
| 20260510033014 | 47 | 48 | 0.9 | 5.2 | 0.00 | 0.00 | 0.00 | 80 | 1018.9 |
| 20260510031518 | 47 | 22 | 1.7 | 7.8 | 0.00 | 0.00 | 0.00 | 79 | 1018.8 |
| 20260510030023 | 47 | 13 | 1.7 | 10.4 | 0.00 | 0.00 | 0.00 | 78 | 1018.7 |
| 20260510024506 | 47 | 15 | 2.6 | 7.8 | 0.00 | 0.00 | 0.00 | 78 | 1018.6 |
| 20260510023012 | 48 | 26 | 3.5 | 9.6 | 0.00 | 0.00 | 0.00 | 77 | 1018.6 |
| 20260510021518 | 48 | 24 | 2.6 | 8.7 | 0.00 | 0.00 | 0.00 | 74 | 1018.6 |
| 20260510020022 | 48 | 11 | 3.5 | 10.4 | 0.00 | 0.00 | 0.00 | 73 | 1018.6 |
| 20260510014523 | 48 | 292 | 2.6 | 8.7 | 0.00 | 0.00 | 0.00 | 71 | 1018.7 |
| 20260510013008 | 48 | 25 | 1.7 | 7.8 | 0.00 | 0.00 | 0.00 | 70 | 1018.8 |
| 20260510011532 | 49 | 112 | 2.6 | 8.7 | 0.00 | 0.00 | 0.00 | 70 | 1018.9 |
| 20260510010016 | 49 | 42 | 1.7 | 8.7 | 0.00 | 0.00 | 0.00 | 69 | 1018.7 |
| 20260510004523 | 49 | 352 | 1.7 | 7.8 | 0.00 | 0.00 | 0.00 | 67 | 1018.8 |
| 20260510003027 | 49 | 22 | 1.7 | 4.3 | 0.00 | 0.00 | 0.00 | 65 | 1018.8 |
| 20260510001510 | 50 | 5 | 1.7 | 6.1 | 0.00 | 0.00 | 0.00 | 62 | 1018.9 |
| 20260510000017 | 51 | 352 | 2.6 | 9.6 | 0.00 | 0.00 | 0.00 | 60 | 1018.9 |
| 20260509234518 | 51 | 25 | 2.6 | 7.8 | 0.00 | 0.00 | 0.00 | 59 | 1018.7 |
| 20260509233024 | 52 | 12 | 2.6 | 11.3 | 0.00 | 0.00 | 0.00 | 58 | 1018.6 |
| 20260509231528 | 52 | 5 | 2.6 | 7.0 | 0.00 | 0.00 | 0.00 | 60 | 1018.6 |
| 20260509230012 | 52 | 11 | 2.6 | 7.0 | 0.00 | 0.00 | 0.00 | 61 | 1018.3 |
| 20260509224519 | 53 | 352 | 1.7 | 4.3 | 0.00 | 0.00 | 0.00 | 61 | 1018.2 |
| 20260509223023 | 53 | 351 | 2.6 | 7.0 | 0.00 | 0.00 | 0.00 | 61 | 1018.3 |
| 20260509221523 | 53 | 37 | 2.6 | 7.0 | 0.00 | 0.00 | 0.00 | 62 | 1018.4 |
| 20260509220025 | 54 | 360 | 1.7 | 3.5 | 0.00 | 0.00 | 0.00 | 62 | 1018.4 |
| 20260509214520 | 53 | 5 | 0.9 | 2.6 | 0.00 | 0.00 | 0.00 | 64 | 1018.3 |
| 20260509213018 | 54 | 15 | 0.9 | 2.6 | 0.00 | 0.00 | 0.00 | 61 | 1018.1 |
| 20260509211524 | 55 | 19 | 1.7 | 3.5 | 0.00 | 0.00 | 0.00 | 60 | 1017.8 |
| 20260509210031 | 56 | 17 | 1.7 | 2.6 | 0.00 | 0.00 | 0.00 | 58 | 1017.9 |
| 20260509204535 | 57 | 24 | 1.7 | 3.5 | 0.00 | 0.00 | 0.00 | 56 | 1017.7 |
| 20260509203017 | 58 | 30 | 1.7 | 4.3 | 0.00 | 0.00 | 0.00 | 54 | 1017.6 |
| 20260509201523 | 59 | 15 | 1.7 | 3.5 | 0.00 | 0.00 | 0.00 | 53 | 1017.3 |
| 20260509200026 | 59 | 19 | 1.7 | 5.2 | 0.00 | 0.00 | 0.00 | 53 | 1017.2 |
| 20260509194528 | 60 | 34 | 0.9 | 4.3 | 0.00 | 0.00 | 0.00 | 52 | 1017.2 |
| 20260509193028 | 61 | 26 | 0.9 | 5.2 | 0.00 | 0.00 | 0.00 | 52 | 1017.1 |
| 20260509191525 | 62 | 14 | 1.7 | 6.1 | 0.00 | 0.00 | 0.00 | 50 | 1017.0 |
| 20260509190006 | 64 | 24 | 0.9 | 4.3 | 0.00 | 0.00 | 0.00 | 49 | 1016.8 |
| 20260509184507 | 65 | 352 | 1.7 | 4.3 | 0.00 | 0.00 | 0.00 | 48 | 1016.9 |
| 20260509183014 | 66 | 5 | 0.9 | 3.5 | 0.00 | 0.00 | 0.00 | 47 | 1016.9 |
| 20260509181503 | 67 | 360 | 1.7 | 5.2 | 0.00 | 0.00 | 0.00 | 45 | 1016.8 |
| 20260509180004 | 68 | 342 | 1.7 | 7.0 | 0.00 | 0.00 | 0.00 | 45 | 1016.7 |
| 20260509174506 | 69 | 28 | 1.7 | 6.1 | 0.00 | 0.00 | 0.00 | 44 | 1016.6 |
| 20260509173009 | 69 | 55 | 1.7 | 7.0 | 0.00 | 0.00 | 0.00 | 43 | 1016.8 |
| 20260509171517 | 69 | 338 | 1.7 | 7.0 | 0.00 | 0.00 | 0.00 | 43 | 1016.6 |
| 20260509170003 | 73 | 10 | 1.7 | 4.3 | 0.00 | 0.00 | 0.00 | 41 | 1016.8 |
| 20260509164504 | 73 | 21 | 3.5 | 10.4 | 0.00 | 0.00 | 0.00 | 39 | 1016.8 |